[[{"header":{"parameterUnit":"m.s-1","parameterCategory":1,"la1":30.2991,"la2":30.254,"lo1":-89.0895,"lo2":-89.0444,"dy":0.0017,"dx":0.0017,"nx":28,"ny":28,"refTime":"2023-08-18T03:00:00:Z","depth":0,"parameterNumber":2,"parameterNumberName":"U-component_of_WINDS"},"data":[0,0,0,0,0,0,0,0,0,0,0,0,0,0,0,0,0,0,0,0,0,0,0,0,0,0,0,0,0,0,0,0,0,0,0,0,0,0,0,0,0,0,0,0,0,0,0,0,0,0,0,0,0,0,0,0,0,0,3.9675,3.9677,0,3.9836,3.9837,3.9839,3.9821,3.9818,3.9816,3.9813,3.9977,3.9983,3.999,0,0,0,0,0,0,0,0,0,0,0,0,0,3.9352,3.9358,3.9675,3.9677,3.9679,3.9835,3.9837,3.984,3.9821,3.9818,3.9815,3.9812,3.9974,3.9982,3.999,0,0,0,0,0,0,0,0,0,0,0,0,0,3.95,3.936,3.9675,3.9689,3.9692,3.9835,3.9838,3.984,3.9822,3.9818,3.9814,3.9811,3.9972,3.9981,3.9991,4.013,0,0,4.0022,4.0027,0,0,0,0,0,0,0,0,3.9492,3.9512,3.9685,3.9688,3.9692,3.9804,3.9783,3.9937,3.9823,3.9773,3.9813,3.9809,3.9922,3.9936,3.9975,4.0138,4.0145,4.0023,4.0029,4.0034,4.0036,0,0,0,0,0,0,0,3.9482,3.9505,3.9738,3.9687,3.9692,3.9687,3.9704,3.9812,3.9867,3.9777,3.9776,3.9795,3.9923,3.9965,3.9978,4.0147,4.0023,4.0032,4.0038,4.0042,4.0433,4.0437,0,0,0,0,0,0,3.9468,3.9497,3.9733,3.9743,3.958,3.9696,3.9715,3.9772,3.9866,3.9876,3.9798,3.9794,3.995,3.9967,3.9984,4.0153,4.0033,4.0043,4.0049,4.0429,4.0434,4.0439,0,0,0,0,0,0,3.9461,3.9489,3.9727,3.962,3.965,3.9705,3.977,3.9777,3.9819,3.9882,3.9891,3.9831,3.9947,3.997,4.0094,4.0158,4.0047,4.0057,4.0424,4.043,4.0436,4.0491,0,0,0,0,0,0,3.9452,3.9487,3.9541,3.9621,3.9656,3.9835,3.9774,3.9783,3.9836,3.9832,3.9915,3.9925,3.9946,4.0079,4.0104,4.017,4.0065,4.0418,4.0427,4.0434,4.0484,4.0498,4.0511,0,0,0,0,0,3.9441,3.9549,3.9543,3.9572,3.9724,3.9839,3.9858,3.988,3.9842,3.9896,3.9936,3.9922,4.0147,4.0092,4.012,4.019,4.0414,4.0424,4.0434,4.0477,4.0496,4.0511,0,0,0,0,0,0,3.9474,3.956,3.9554,3.9693,3.9758,3.9835,3.9904,3.9899,3.9977,3.9969,3.9993,4.0012,4.0138,4.0176,4.0113,4.0329,4.0275,4.0291,4.0299,4.0317,4.033,4.0318,4.0073,0,0,0,0,0,3.9497,3.9584,3.9654,3.9769,3.9803,3.9848,3.9899,3.991,3.9979,4.0007,4.0057,4.0124,4.021,4.0266,4.0348,4.049,4.0507,4.0551,4.0565,4.0576,4.0589,4.0667,4.0687,4.0471,4.0471,4.047,0,0,3.9547,3.9604,3.9657,3.9778,3.983,3.9919,3.9871,3.9967,4.0033,4.0021,4.0142,4.0181,4.0258,4.0391,4.0452,4.0427,4.0653,4.0589,4.0597,4.0604,4.0679,4.0699,4.0717,4.0477,4.0476,4.0475,0,0,3.9681,3.9734,3.9836,3.9889,3.997,3.9999,4.0023,4.0102,4.0127,4.0249,4.0242,4.0321,4.0468,4.0523,4.057,4.0727,4.0717,4.0753,4.0825,4.09,4.0917,4.0932,4.0987,4.1007,4.0766,4.0766,4.0766,0,3.9732,3.9866,3.9888,3.9985,4.0038,4.0033,4.0136,4.0187,4.0289,4.0326,4.0296,4.0482,4.0533,4.0679,4.0717,4.0756,4.0784,4.0743,4.0913,4.0928,4.0943,4.0996,4.1016,4.077,4.077,4.0769,4.0769,0,3.9924,4.0017,4.0089,4.0189,4.025,4.035,4.0387,4.0447,4.0453,4.0486,4.061,4.0671,4.0766,4.0802,4.0809,4.0949,4.0931,4.0907,4.0853,4.0967,4.1017,4.1037,4.0776,4.0774,4.0773,4.0772,0,0,4.0083,4.0195,4.0221,4.0266,4.0355,4.0427,4.0526,4.0619,4.067,4.0741,4.0825,4.095,4.0928,4.0982,4.0996,4.1062,4.1182,4.103,4.1032,4.1055,4.1339,4.1356,4.1379,4.1176,4.118,4.1183,4.1333,0,4.0226,4.0401,4.0425,4.0581,4.0666,4.0663,4.0749,4.0813,4.0846,4.0924,4.0961,4.1049,4.1014,4.1046,4.1112,4.1153,4.1239,4.1143,4.1253,4.1257,4.1233,4.1406,4.1424,4.1561,4.1352,4.1356,4.1358,0,4.0415,4.0493,4.0657,4.0734,4.0771,4.0848,4.0935,4.101,4.1082,4.1102,4.1162,4.1168,4.127,4.1213,4.1354,4.1289,4.1335,4.1363,4.1368,4.1379,4.1313,4.1419,4.1606,4.1626,4.1389,4.1387,4.1385,0,4.0514,4.0659,4.0776,4.0815,4.0908,4.0962,4.1004,4.1072,4.1127,4.1203,4.1239,4.1326,4.1374,4.1442,4.147,4.1426,4.161,4.1555,4.1628,4.1628,4.1666,4.1663,4.1862,4.1698,4.1698,4.1698,4.1697,0,4.067,4.0771,4.0821,4.0893,4.1006,4.1032,4.1143,4.1182,4.1243,4.1322,4.1325,4.1399,4.1433,4.1513,4.1536,4.1649,4.1671,4.1689,4.1694,4.1689,4.1686,4.1718,4.1709,4.1703,4.1702,4.1701,4.17,0,4.0799,4.0837,4.0964,4.1042,4.1064,4.1143,4.121,4.1279,4.1312,4.1413,4.1438,4.149,4.1583,4.1619,4.1734,4.1749,4.188,4.1877,4.1855,4.1856,4.1927,4.192,4.2153,4.2184,4.2001,4.2003,4.2004,0,4.0895,4.0973,4.1059,4.1113,4.1156,4.1242,4.1298,4.1327,4.1385,4.1474,4.1532,4.1626,4.1702,4.1852,4.19,4.1987,4.1986,4.2062,4.1999,4.1991,4.1986,4.1981,4.1988,4.2073,4.2075,4.2077,4.2078,0,4.1063,4.1078,4.1159,4.1247,4.1313,4.1384,4.1452,4.1496,4.1535,4.16,4.1697,4.1756,4.1873,4.1966,4.2056,4.2098,4.2095,4.2098,4.2119,4.2113,4.2097,4.2106,4.1886,4.2092,4.209,4.2089,4.2089,4.2088,4.1178,4.1246,4.1318,4.1408,4.1463,4.1526,4.1596,4.1638,4.1718,4.1816,4.1829,4.1931,4.2002,4.2123,4.2169,4.225,4.2229,4.2261,4.2268,4.2275,4.228,4.2085,4.2266,4.2266,4.2266,4.2265,4.2265,0,4.1345,4.1391,4.1473,4.1569,4.164,4.1632,4.1707,4.1766,4.1857,4.1923,4.1998,4.2109,4.2199,4.2254,4.2345,4.2399,4.2399,4.2421,4.2417,4.2427,4.2293,4.2265,4.2419,4.2419,4.2419,4.2419,4.2419,4.2419,4.144,4.1555,4.1579,4.1721,4.1766,4.1867,4.1911,4.197,4.2023,4.2146,4.2221,4.2257,4.2319,4.2414,4.2496,4.251,4.2542,4.2566,4.2578,4.2452,4.2436,4.2421,4.2394,4.2573,4.2573,4.2705,4.2706,4.2707]},{"header":{"parameterUnit":"m.s-1","parameterCategory":1,"la1":30.2991,"la2":30.254,"lo1":-89.0895,"lo2":-89.0444,"dy":0.0017,"dx":0.0017,"nx":28,"ny":28,"refTime":"2023-08-18T03:00:00:Z","depth":0,"parameterNumber":3,"parameterNumberName":"V-component_of_WINDS"},"data":[0,0,0,0,0,0,0,0,0,0,0,0,0,0,0,0,0,0,0,0,0,0,0,0,0,0,0,0,0,0,0,0,0,0,0,0,0,0,0,0,0,0,0,0,0,0,0,0,0,0,0,0,0,0,0,0,0,0,-1.5671,-1.5671,0,-1.5687,-1.5687,-1.5687,-1.5665,-1.5665,-1.5664,-1.5663,-1.5678,-1.5679,-1.568,0,0,0,0,0,0,0,0,0,0,0,0,0,-1.5622,-1.5623,-1.5671,-1.5671,-1.5672,-1.5687,-1.5687,-1.5687,-1.5666,-1.5665,-1.5664,-1.5663,-1.5678,-1.5679,-1.568,0,0,0,0,0,0,0,0,0,0,0,0,0,-1.5641,-1.5624,-1.5671,-1.5663,-1.5662,-1.5687,-1.5687,-1.5687,-1.5666,-1.5665,-1.5663,-1.5662,-1.5677,-1.5679,-1.5681,-1.5714,0,0,-1.5686,-1.5686,0,0,0,0,0,0,0,0,-1.564,-1.5643,-1.5664,-1.5663,-1.5663,-1.5673,-1.5675,-1.5696,-1.5666,-1.5664,-1.5663,-1.5662,-1.5677,-1.5679,-1.5684,-1.5715,-1.5715,-1.5686,-1.5687,-1.5687,-1.5688,0,0,0,0,0,0,0,-1.5639,-1.5642,-1.5677,-1.5664,-1.5663,-1.5658,-1.5659,-1.5679,-1.5677,-1.5664,-1.5663,-1.5665,-1.5677,-1.5683,-1.5684,-1.5715,-1.5686,-1.5687,-1.5688,-1.5689,-1.5774,-1.5775,0,0,0,0,0,0,-1.5639,-1.5641,-1.5677,-1.5678,-1.5648,-1.566,-1.5661,-1.5671,-1.5677,-1.5677,-1.5666,-1.5664,-1.568,-1.5683,-1.5685,-1.5724,-1.5687,-1.5689,-1.569,-1.5773,-1.5774,-1.5776,0,0,0,0,0,0,-1.5638,-1.5642,-1.5676,-1.5659,-1.5663,-1.5662,-1.5673,-1.5672,-1.5678,-1.5678,-1.5677,-1.5673,-1.568,-1.5683,-1.5707,-1.5724,-1.569,-1.5691,-1.5771,-1.5773,-1.5775,-1.5803,0,0,0,0,0,0,-1.5636,-1.5642,-1.5655,-1.566,-1.5664,-1.5698,-1.5674,-1.5673,-1.5681,-1.5678,-1.5684,-1.5684,-1.5679,-1.5705,-1.5709,-1.5726,-1.5693,-1.577,-1.5772,-1.5774,-1.58,-1.5805,-1.581,0,0,0,0,0,-1.5635,-1.5662,-1.5655,-1.566,-1.568,-1.5699,-1.5702,-1.5696,-1.5682,-1.5695,-1.5695,-1.5684,-1.5722,-1.5707,-1.5712,-1.573,-1.5769,-1.5771,-1.5774,-1.5798,-1.5804,-1.581,0,0,0,0,0,0,-1.5658,-1.5662,-1.5655,-1.5684,-1.5692,-1.5696,-1.5711,-1.5703,-1.5714,-1.5711,-1.5703,-1.5704,-1.573,-1.5733,-1.5716,-1.5762,-1.5743,-1.5747,-1.576,-1.5766,-1.577,-1.5769,-1.5694,0,0,0,0,0,-1.5667,-1.5682,-1.5685,-1.571,-1.5715,-1.5712,-1.5721,-1.5716,-1.5723,-1.5725,-1.5727,-1.5735,-1.5748,-1.5757,-1.577,-1.5801,-1.5802,-1.5816,-1.5821,-1.5824,-1.5827,-1.5844,-1.585,-1.5785,-1.5785,-1.5785,0,0,-1.5684,-1.5688,-1.5699,-1.5715,-1.572,-1.5736,-1.5715,-1.5733,-1.5744,-1.5728,-1.5751,-1.5753,-1.576,-1.5788,-1.5801,-1.5791,-1.5846,-1.5828,-1.5831,-1.5832,-1.5847,-1.5854,-1.5859,-1.5787,-1.5787,-1.5786,0,0,-1.5724,-1.573,-1.5751,-1.5757,-1.5765,-1.5764,-1.5769,-1.5775,-1.5775,-1.5799,-1.5787,-1.5801,-1.5824,-1.583,-1.5836,-1.588,-1.5869,-1.5884,-1.5908,-1.5925,-1.593,-1.5934,-1.5949,-1.5955,-1.5888,-1.5888,-1.5888,0,-1.5745,-1.5769,-1.5763,-1.5782,-1.579,-1.5777,-1.5798,-1.5804,-1.5816,-1.5821,-1.5811,-1.584,-1.5844,-1.5873,-1.5884,-1.589,-1.5895,-1.5883,-1.593,-1.5934,-1.5938,-1.5952,-1.5958,-1.5889,-1.5889,-1.5889,-1.5889,0,-1.5794,-1.5811,-1.5827,-1.584,-1.5849,-1.5869,-1.5867,-1.5877,-1.5872,-1.5872,-1.5895,-1.59,-1.5913,-1.592,-1.5915,-1.5949,-1.5942,-1.5931,-1.5911,-1.5946,-1.5959,-1.5965,-1.5892,-1.5891,-1.5891,-1.589,0,0,-1.5848,-1.5857,-1.5863,-1.5869,-1.5878,-1.589,-1.591,-1.5924,-1.5932,-1.5942,-1.5958,-1.5979,-1.5968,-1.5975,-1.597,-1.5985,-1.6019,-1.5971,-1.5972,-1.5979,-1.6056,-1.6063,-1.607,-1.6012,-1.6013,-1.6014,-1.6055,0,-1.5887,-1.5922,-1.5918,-1.595,-1.5966,-1.5954,-1.5971,-1.5978,-1.5979,-1.5992,-1.5993,-1.6007,-1.5993,-1.5997,-1.6011,-1.6012,-1.6034,-1.6009,-1.6027,-1.6027,-1.6024,-1.6077,-1.6085,-1.6123,-1.606,-1.6061,-1.6061,0,-1.5938,-1.5949,-1.5983,-1.599,-1.5996,-1.6012,-1.6024,-1.6037,-1.6045,-1.6044,-1.6053,-1.6046,-1.6065,-1.6046,-1.6073,-1.6057,-1.6064,-1.6066,-1.6067,-1.6067,-1.6046,-1.6078,-1.6135,-1.614,-1.607,-1.6069,-1.6068,0,-1.5973,-1.5996,-1.602,-1.6025,-1.6034,-1.6045,-1.6049,-1.6056,-1.6064,-1.6075,-1.608,-1.6094,-1.61,-1.6111,-1.6107,-1.6094,-1.6135,-1.6116,-1.6134,-1.6135,-1.6142,-1.6142,-1.6201,-1.6149,-1.6149,-1.6149,-1.6149,0,-1.6017,-1.6038,-1.6036,-1.605,-1.6074,-1.6069,-1.6093,-1.6095,-1.6102,-1.6116,-1.6107,-1.6121,-1.6117,-1.613,-1.6128,-1.615,-1.6154,-1.6154,-1.6152,-1.6154,-1.6154,-1.6158,-1.6154,-1.615,-1.615,-1.615,-1.615,0,-1.6059,-1.6059,-1.6083,-1.609,-1.6092,-1.6109,-1.6114,-1.6128,-1.6128,-1.6147,-1.6151,-1.6151,-1.6167,-1.6165,-1.6183,-1.6181,-1.6209,-1.6205,-1.6206,-1.6205,-1.6224,-1.6222,-1.6286,-1.6294,-1.6239,-1.6239,-1.624,0,-1.6086,-1.6103,-1.6111,-1.612,-1.6125,-1.614,-1.6149,-1.6146,-1.6155,-1.6166,-1.6178,-1.6193,-1.6205,-1.623,-1.6232,-1.6246,-1.6241,-1.6263,-1.6243,-1.6244,-1.6241,-1.624,-1.6241,-1.6267,-1.6267,-1.6268,-1.6268,0,-1.6135,-1.6134,-1.6147,-1.6161,-1.6172,-1.6182,-1.6192,-1.62,-1.6197,-1.6208,-1.6225,-1.6234,-1.6252,-1.6267,-1.628,-1.6283,-1.6275,-1.6275,-1.628,-1.6281,-1.628,-1.628,-1.6216,-1.6273,-1.6273,-1.6272,-1.6272,-1.6272,-1.617,-1.6184,-1.6192,-1.6207,-1.6214,-1.6223,-1.6236,-1.6239,-1.6252,-1.6267,-1.6264,-1.6282,-1.629,-1.6307,-1.6312,-1.6326,-1.6318,-1.6326,-1.6327,-1.6329,-1.6331,-1.6279,-1.6329,-1.6329,-1.6328,-1.6328,-1.6328,0,-1.6218,-1.6223,-1.6237,-1.625,-1.6262,-1.6255,-1.6265,-1.6275,-1.6291,-1.63,-1.6312,-1.633,-1.6345,-1.6348,-1.6362,-1.6373,-1.637,-1.6377,-1.6375,-1.6376,-1.6337,-1.6331,-1.6379,-1.6379,-1.6379,-1.6379,-1.6379,-1.6379,-1.6244,-1.6267,-1.6267,-1.6293,-1.6298,-1.6316,-1.6322,-1.6331,-1.6337,-1.6359,-1.6371,-1.6373,-1.638,-1.6394,-1.6407,-1.6408,-1.6413,-1.6422,-1.6421,-1.6384,-1.6379,-1.6374,-1.6368,-1.6423,-1.6423,-1.6458,-1.6459,-1.6459]}]]